Theta_e
304 304 307 308 309 307 304 296 287 297 300 287 288 286 289 291 287 290 288 287 285 284 285 284 284 285 289 293 293 289 290 286 281 284 289 290 289 286 286 282 281 283 281 283
303 302 302 306 308 307 300 292 292 300 297 281 282 286 286 288 287 287 286 285 287 287 284 282 285 287 292 293 292 291 291 285 280 282 285 289 286 286 286 285 284 280 278 282
301 301 301 302 308 306 300 291 284 290 295 289 285 284 283 283 289 288 289 288 287 285 283 286 283 284 289 293 292 296 295 287 283 279 281 285 283 285 286 285 280 281 281 283
301 300 301 300 303 305 299 290 287 290 284 286 287 286 285 283 283 288 288 285 285 283 280 282 282 284 286 290 293 292 291 284 285 285 286 286 285 284 285 283 284 280 283 283
300 300 301 301 303 304 296 286 287 290 287 289 287 286 284 283 285 286 285 284 286 286 282 284 283 285 285 285 289 289 290 283 285 282 285 285 283 285 285 284 285 284 285 284
299 300 301 302 301 302 295 295 295 292 287 286 285 284 286 286 288 289 289 289 287 286 287 290 291 290 289 289 287 288 287 285 282 278 283 283 279 283 284 285 287 286 282 288
299 299 301 302 302 299 296 295 295 288 282 285 284 286 287 286 288 286 289 290 288 291 296 295 293 291 291 291 290 290 286 285 284 279 281 273 284 288 288 286 288 289 289 290
300 300 300 301 301 301 295 296 294 290 282 284 284 285 285 287 288 287 288 290 293 296 292 285 283 284 284 286 289 289 291 286 281 277 277 281 283 286 286 285 284 289 288 290
300 300 300 300 301 301 296 294 297 292 285 283 287 285 286 283 283 285 288 293 296 294 287 284 279 277 281 280 283 289 289 289 282 280 276 273 282 288 292 290 282 290 290 292
299 299 299 299 299 300 298 294 296 292 286 288 288 285 285 288 287 285 286 289 290 293 285 281 280 279 284 278 278 281 282 282 280 280 277 281 288 289 293 279 282 292 294 294
299 299 299 299 300 300 297 295 296 291 285 287 290 291 287 288 289 284 288 287 287 287 283 282 282 281 283 281 284 282 281 280 279 280 277 274 291 290 284 289 294 294 294 294
299 299 298 298 300 300 298 291 296 296 289 287 292 294 295 293 294 291 290 288 288 288 284 284 285 283 284 283 278 287 280 284 282 283 283 290 292 291 294 295 294 294 294 295
298 298 297 298 299 300 297 293 294 292 287 286 286 285 291 295 295 297 288 289 292 290 293 288 287 282 284 280 282 284 287 290 286 286 289 289 292 294 294 296 295 295 295 296
297 297 297 298 298 299 297 293 293 292 288 281 283 292 290 295 294 295 297 295 296 295 292 288 287 284 289 285 286 285 288 289 286 285 289 291 292 293 294 295 296 294 295 296
297 297 297 297 298 299 296 293 293 294 288 280 283 288 290 292 294 294 296 295 293 289 285 285 284 287 287 287 286 284 289 287 285 283 289 290 290 294 295 293 292 294 295 296
296 297 297 297 298 298 292 286 291 294 294 284 278 288 289 292 293 293 294 294 293 289 286 286 287 288 288 283 282 287 290 291 292 289 292 292 293 295 295 293 295 297 296 296
297 297 297 297 298 292 287 283 290 295 294 283 278 281 287 291 292 291 291 292 291 289 287 285 287 287 289 285 281 287 289 290 291 292 290 289 291 290 293 295 295 294 294 294
297 296 297 297 297 295 290 293 297 296 290 286 278 280 284 291 287 287 291 288 288 288 287 286 284 286 286 281 285 287 289 290 290 290 291 291 291 291 292 294 292 292 291 291
296 296 296 294 291 287 288 295 297 295 288 282 280 279 279 289 287 289 289 290 284 289 285 284 285 283 279 283 286 286 288 287 288 291 292 292 291 291 291 290 291 291 291 291
296 292 288 283 288 296 296 291 286 286 286 285 280 285 282 287 287 285 285 286 283 281 284 288 284 283 287 288 289 289 289 289 290 289 289 290 289 288 288 288 289 290 290 290
290 285 283 289 296 291 286 281 281 281 279 283 283 284 283 288 283 283 286 283 283 278 281 282 281 280 284 287 287 288 289 290 289 289 288 287 287 286 286 287 287 288 290 290
289 289 293 291 286 283 280 278 282 281 279 282 281 282 285 287 288 284 285 281 280 276 284 281 278 283 287 287 286 286 286 286 285 285 284 284 284 284 284 284 284 285 285 284
292 288 284 283 281 277 275 274 277 278 280 281 283 281 285 287 288 283 282 277 276 284 279 278 281 285 286 287 286 285 285 284 284 283 283 282 282 281 280 279 279 281 283 283
284 281 276 277 275 278 278 279 280 282 282 283 283 283 284 285 283 283 278 281 282 276 275 277 283 284 284 286 286 284 283 282 282 281 281 280 280 279 277 277 278 283 282 281
281 281 276 275 278 280 281 282 283 285 284 284 285 285 284 282 280 282 280 277 275 277 277 281 283 284 284 284 284 283 282 281 281 282 280 279 279 278 278 277 280 281 281 280
283 281 277 280 278 279 282 282 282 286 286 286 286 283 281 281 281 279 277 276 275 278 281 282 283 283 283 283 283 283 283 282 282 282 282 280 279 278 279 278 278 279 279 279
282 279 280 278 277 278 278 280 282 287 285 281 282 278 278 281 279 278 281 277 279 281 281 282 283 283 283 283 283 282 282 282 283 282 282 280 281 281 281 279 279 279 278 277
Wind_Speed
6 5 2 7 15 15 4 3 2 1 2 2 2 4 3 3 1 3 1 2 5 7 5 8 7 6 5 5 2 5 3 2 7 5 5 4 2 1 1 3 7 5 1 10
6 5 3 3 15 15 5 3 2 2 2 3 3 2 1 1 1 2 2 2 1 3 2 4 5 6 5 7 7 5 4 4 6 11 3 2 4 2 2 3 2 4 4 8
6 5 3 4 14 13 4 3 2 2 3 1 3 3 2 3 4 6 6 5 2 7 7 5 4 9 6 8 4 8 5 6 9 8 14 8 13 19 11 3 5 8 15 20
7 5 4 2 2 11 3 3 3 1 4 5 5 3 3 4 4 5 6 3 7 5 3 3 7 7 11 5 3 3 1 6 6 11 18 15 17 22 20 17 15 13 22 21
7 6 6 3 4 7 1 3 2 2 2 2 12 8 5 8 6 4 4 8 6 5 5 5 14 12 9 11 12 6 4 7 8 14 18 16 15 20 22 20 19 18 22 27
9 8 6 6 3 4 1 1 1 2 3 4 4 4 5 4 3 6 12 10 7 7 13 11 6 7 7 12 12 7 5 4 6 17 15 14 13 19 18 21 20 16 20 19
9 7 6 6 6 5 1 0 2 3 3 4 5 3 7 10 10 11 11 8 7 3 2 5 5 8 12 13 14 12 11 7 6 13 10 14 7 6 10 11 13 12 16 15
9 6 5 5 5 7 2 1 2 2 2 4 6 8 6 7 7 11 12 13 16 9 4 3 6 3 3 8 14 15 13 7 4 4 5 12 13 13 10 12 18 12 16 14
8 7 5 5 6 8 3 1 2 2 1 5 7 6 9 9 7 5 7 11 4 5 4 3 5 5 2 3 6 3 10 7 6 3 7 6 2 4 2 3 11 2 2 1
8 7 6 5 5 7 3 1 3 2 3 4 1 5 4 4 3 2 3 4 1 4 4 5 5 4 4 5 3 4 3 3 11 10 9 7 5 9 3 9 3 3 1 5
8 7 5 5 7 8 4 1 4 4 3 5 5 3 5 8 2 4 1 4 2 2 5 5 4 3 4 3 7 6 8 6 5 4 5 8 7 5 6 5 8 9 10 9
8 7 6 5 7 10 7 2 2 2 4 4 2 7 7 8 8 5 3 4 4 3 3 3 2 3 3 6 4 5 7 8 3 6 3 3 5 7 13 9 11 11 11 13
8 8 8 7 8 10 8 3 3 2 4 5 5 11 16 15 15 12 8 3 4 3 3 2 2 6 4 4 6 5 4 2 5 2 7 11 11 12 12 6 9 10 15 14
10 10 9 9 9 11 8 3 3 2 1 4 5 2 6 7 13 17 17 16 5 3 3 5 4 3 4 4 5 5 4 5 4 6 9 11 14 10 13 12 10 12 16 13
11 11 11 10 11 11 4 1 3 3 3 3 6 13 20 18 15 17 15 14 13 2 3 3 5 3 3 3 2 6 6 6 5 7 8 9 9 7 3 6 14 12 9 8
12 12 12 11 11 9 3 1 3 5 4 3 4 4 7 4 8 11 12 11 5 3 3 4 2 4 4 5 5 4 8 10 13 12 8 11 9 8 9 8 8 7 7 7
12 12 11 11 11 5 4 5 2 9 4 2 5 5 4 2 2 3 3 2 2 3 3 3 3 3 5 4 12 10 8 10 10 10 4 11 8 7 7 6 9 8 6 5
11 11 10 9 13 7 6 4 3 7 2 3 4 5 3 4 2 2 3 3 3 4 1 2 4 1 3 7 6 6 10 13 13 16 12 15 12 10 10 6 4 7 5 5
11 9 6 2 2 5 3 9 8 3 2 3 5 4 4 2 2 2 3 3 3 2 4 4 4 4 8 11 8 9 9 7 8 4 4 6 6 4 2 3 4 5 5 5
15 4 2 3 5 8 5 4 4 5 5 4 5 3 3 1 2 2 1 0 3 3 5 3 5 8 16 10 11 12 9 9 9 6 6 3 1 3 3 4 5 6 5 2
2 3 5 3 9 3 4 5 6 6 6 6 5 9 4 3 2 2 2 1 2 4 4 5 3 5 4 2 4 6 3 2 4 4 6 4 3 3 5 7 6 7 5 4
5 3 1 2 3 3 6 5 4 6 6 6 5 5 3 3 3 1 2 2 2 6 2 4 4 4 4 5 3 5 6 7 8 7 6 5 5 5 5 5 6 6 6 4
1 1 3 3 4 6 7 7 4 4 4 5 4 3 3 2 2 2 3 4 6 2 4 5 5 3 4 4 4 6 5 6 6 7 6 6 5 5 6 6 5 5 2 2
3 4 6 4 5 6 6 3 2 1 3 6 3 3 2 2 3 2 4 4 3 5 4 6 1 5 5 5 3 4 5 6 7 5 5 5 5 6 5 5 4 4 6 5
4 4 5 6 2 0 1 2 1 1 4 5 2 2 3 3 3 4 5 4 6 7 5 2 2 6 6 5 4 5 6 6 5 5 6 6 5 6 6 7 6 6 6 7
4 3 1 1 1 1 2 2 2 1 2 2 1 2 2 5 5 8 7 5 7 4 1 2 5 5 4 5 6 5 6 6 6 5 6 7 6 6 6 6 8 8 8 9
4 3 2 1 1 2 2 2 3 3 2 2 2 4 8 1 4 5 5 5 2 2 2 3 4 5 5 5 5 5 6 5 5 6 7 7 6 7 8 11 8 8 8 5
Wind_Direction
129 95 131 191 160 153 110 143 156 327 43 96 229 221 214 125 315 13 266 204 229 234 245 266 268 243 287 302 213 311 139 18 317 312 308 274 340 24 5 264 223 176 140 266
142 119 86 166 170 157 124 171 120 95 79 183 214 251 166 4 207 241 39 264 192 39 6 288 239 260 291 287 259 219 175 128 321 320 246 75 34 343 102 114 18 235 234 263
155 143 115 40 186 168 105 99 184 165 196 195 180 157 216 240 228 241 237 247 277 281 272 243 292 315 313 321 271 271 130 160 185 230 261 293 303 309 286 242 270 284 257 284
172 169 143 90 202 164 110 153 193 302 167 192 191 181 168 186 241 228 193 240 222 200 254 283 266 284 290 284 332 38 321 225 228 273 262 259 270 279 279 273 266 239 265 256
181 185 167 150 130 167 117 123 158 137 140 143 192 198 204 215 235 223 227 230 251 208 215 235 286 282 274 278 298 278 199 264 221 257 263 259 256 260 256 265 259 246 258 262
182 179 164 162 156 145 152 159 190 125 160 161 167 214 204 208 202 249 241 262 258 271 277 266 256 254 257 264 280 258 230 223 251 269 284 279 256 244 248 247 247 251 259 267
187 181 167 169 170 124 99 313 137 101 236 203 195 237 217 237 232 247 277 296 285 249 342 319 282 258 255 257 255 236 241 228 274 274 266 246 273 234 248 240 245 232 258 270
195 185 177 168 183 150 104 0 96 126 245 236 228 240 251 274 272 272 273 270 249 256 297 282 282 251 269 248 247 233 220 241 245 256 228 278 291 258 250 259 279 247 244 263
180 179 184 187 191 172 98 117 46 61 283 229 229 231 230 245 249 280 254 259 258 134 160 206 244 232 206 269 308 0 199 205 220 264 269 270 263 294 153 158 273 350 190 314
192 191 204 216 210 201 133 168 148 139 266 222 275 249 223 198 212 246 290 313 175 142 170 223 243 229 209 209 226 224 166 199 220 237 249 265 304 327 267 239 327 346 315 297
206 213 227 244 220 205 141 151 175 148 229 262 255 264 277 290 292 278 287 305 204 156 198 219 204 231 204 250 233 253 227 232 212 211 251 261 20 331 237 339 312 317 320 303
208 213 232 243 228 206 160 180 169 149 228 260 310 261 247 240 273 284 203 249 292 184 218 233 270 220 220 217 254 232 249 228 241 219 242 242 251 247 280 280 300 305 309 307
208 226 238 239 231 214 172 149 146 100 271 281 248 251 247 237 227 223 258 207 216 227 323 199 204 240 160 206 223 227 240 203 243 342 225 244 268 276 273 302 279 297 299 295
214 228 236 241 233 219 169 168 171 119 283 269 276 291 247 250 232 228 216 239 218 239 194 224 213 235 223 226 257 216 209 165 186 245 268 265 276 264 257 246 235 282 273 261
218 228 236 238 229 221 153 157 190 170 185 280 296 306 284 254 226 222 219 220 226 154 246 244 197 200 198 208 215 237 187 210 212 249 245 248 274 282 261 271 288 296 294 301
220 228 232 230 220 166 105 312 229 184 148 288 294 291 275 276 213 211 204 208 203 155 210 233 236 263 215 223 229 244 205 222 232 253 271 250 264 277 282 297 307 303 289 276
220 225 227 221 198 143 158 189 221 165 120 185 281 268 267 262 145 166 163 165 187 184 223 220 233 243 211 248 253 252 222 247 249 247 254 264 229 249 278 262 291 294 284 282
213 215 214 208 190 176 239 242 173 155 174 182 243 258 304 184 179 193 176 181 180 197 240 198 219 230 227 257 242 229 244 257 265 258 239 257 272 269 274 281 285 287 309 324
202 202 176 100 169 208 218 219 195 147 195 220 220 220 257 162 163 181 181 187 194 155 221 232 178 208 223 234 243 225 226 214 243 240 256 270 259 269 316 323 298 299 326 345
124 83 148 203 206 184 176 137 193 203 191 223 259 290 247 233 167 113 123 151 218 238 229 159 230 248 251 256 248 250 234 231 246 248 262 221 217 5 337 329 327 305 301 298
140 173 211 220 161 103 184 207 196 188 205 198 223 192 220 177 153 155 206 180 233 243 228 208 244 258 234 37 20 16 344 208 87 82 72 54 43 340 329 331 328 330 321 266
188 195 97 103 191 183 199 205 220 216 211 179 186 192 178 169 117 125 168 237 244 254 146 228 239 239 207 148 119 66 47 57 65 55 57 35 33 6 330 316 330 332 324 340
162 228 255 203 164 197 199 208 198 217 176 171 166 146 153 135 131 173 182 224 238 299 227 238 230 168 131 125 126 93 73 68 64 55 45 38 37 24 9 346 331 311 59 39
218 211 242 214 188 215 199 205 184 219 149 144 145 112 112 135 166 173 214 223 247 252 237 237 245 153 124 104 98 108 80 70 74 64 59 55 50 36 4 2 349 42 59 41
250 208 225 211 248 10 107 132 206 76 139 139 125 129 181 155 212 202 222 216 239 228 235 252 131 126 128 123 110 110 103 93 81 69 67 63 60 53 39 14 19 49 58 58
248 224 272 149 139 203 153 162 182 195 129 114 106 164 218 214 205 189 202 223 231 245 197 128 133 123 119 124 114 103 99 93 90 83 77 72 68 60 54 34 37 43 53 61
189 221 194 254 324 176 190 185 203 138 124 183 171 209 218 218 226 212 196 216 216 194 149 134 130 140 140 124 121 117 105 109 102 92 80 82 78 76 67 58 37 50 56 64